Torna al catalogo

THORAD AGENA D DEB

AttivoPO
NORAD 4918·DEBRIS·🇺🇸 United States

Lanciato Apr 8, 1970 da Vandenberg Space Force Base

Loading…

Prossimi Passaggi

TLE

Source: Space-Track
1 04918U 70025FQ  26218.37828570  .00000281  00000-0  64572-3 0  9993
2 04918  99.4885 356.0901 0160151 281.7800  76.5398 13.29633170719304

Traccia THORAD AGENA D DEB in tempo reale con AllMySat

Download on the App Store